{"data":{"norad_id":64507,"epoch":"2026-05-24T23:48:02.005632Z","epoch_age_seconds":68981,"freshness":"FRESH","line1":"1 64507U 25134H   26144.99168988  .00002723  00000+0  38570-3 0  9991","line2":"2 64507  51.8985 238.1519 0000223  57.0777 303.0207 14.79965432 51617","mean_motion":14.79965432,"eccentricity":2.23e-5,"inclination_deg":51.8985,"raan_deg":238.1519,"arg_perigee_deg":57.0777,"mean_anomaly_deg":303.0207,"bstar":0.0003857,"rev_number":5161,"period_min":97.299569899684,"perigee_km":629.27698244069,"apogee_km":629.5895200739,"semimajor_km":7007.5702512573,"source":"CELESTRAK","updated_at":"2026-05-25T13:38:04.572998Z"}}